Current weather by "City, St" or "zip code"  
 

Current Conditions: JACKSON/REYNOLDS

Clear


50.0 F

Last Updated on May 26 2024, 03:56 AM EDT
Humidity: 89%
Wind Speed: 0.0 mph
Barometer 29.91 in
Dewpoint: 46.9 F
Visibility: 10.00 mi
Precip: --
Heat Index: NA
Wind Chill: NA
Current conditions at:

JACKSON/REYNOLDS (KJXN)

Lat: 42.27 Lon: 84.47

active severe weather and emergency alerts image image weather storm and storm spotter reports image weather observation monitoring service image
Active
Alerts
Storm Reports Obs
Monitoring

Sign-up For Email & Text Message Weather Alert Notification Services



Advertise Here

Observation History for JACKSON/REYNOLDS


Time Wind
(mph)
Vis
(mi)
Weather Precip (in) Temperature (F) Relative
Humidity
Wind
Chill
(F)
Heat
Index
(F)
Pressure
Air Dwpt altimeter
(in)
sea level
(mb)
Rmks
03:56 AM EDT 0.0 10.00 Clear -- 50.0 46.9 89% NA NA 29.91 1012.9
02:56 AM EDT 0.0 10.00 Clear -- 48.9 46.9 93% NA NA 29.92 1013.2
01:56 AM EDT 0.0 10.00 Clear -- 52.0 48.0 86% NA NA 29.92 1013.2
12:56 AM EDT 0.0 10.00 Clear -- 51.1 48.0 89% NA NA 29.92 1013.2
11:56 PM EDT 0.0 10.00 Clear -- 53.1 48.9 86% NA NA 29.91 1012.9
10:56 PM EDT SW 3.4 10.00 Clear -- 55.0 48.9 80% NA NA 29.92 1013.2
09:56 PM EDT 0.0 10.00 Clear -- 60.1 48.0 64% NA NA 29.91 1012.9
08:56 PM EDT W 3.4 10.00 Clear -- 64.9 46.9 52% NA NA 29.89 1012.2
07:56 PM EDT NW 8.1 10.00 Clear -- 73.0 45.0 37% NA 71.8 29.87 1011.5
06:56 PM EDT NW 6.9 10.00 Mostly Clear -- 75.0 44.1 33% NA 73.8 29.85 1010.8
05:56 PM EDT NW 5.8 10.00 Clear -- 75.9 43.0 31% NA 74.7 29.84 1010.5
04:56 PM EDT W 10.3 10.00 Clear -- 75.9 45.0 33% NA 74.8 29.84 1010.5
03:56 PM EDT W 6.9 10.00 Clear -- 77.0 48.0 36% NA 76.1 29.84 1010.5
02:56 PM EDT 8.1 10.00 Clear -- 75.0 50.0 41% NA 74.1 29.84 1010.5
01:56 PM EDT 10.00 Clear -- 73.9 52.0 46% NA 73.2 29.84 1010.5
12:56 PM EDT 8.1 10.00 Mostly Clear -- 73.0 55.9 55% NA 72.7 29.84 1010.5
11:56 AM EDT SW 11.4 10.00 Mostly Clear -- 72.0 57.0 59% NA 71.6 29.83 1010.2
11:21 AM EDT 10.00 NULL -- 69.1 57.9 68% NA NA 29.81 1009.5
10:56 AM EDT 10.00 Mostly Cloudy -- 68.0 60.1 76% NA NA 29.81 1009.5
09:56 AM EDT 8.1 10.00 Mostly Cloudy 00.01 66.9 62.1 84% NA NA 29.81 1009.5
09:43 AM EDT 9.2 10.00 Mostly Cloudy 00.01 66.0 61.0 84% NA NA 29.81 1009.5
09:21 AM EDT 11.4 10.00 Cloudy 00.01 64.9 61.0 87% NA NA 29.82 1009.8
08:56 AM EDT 11.4 10.00 Cloudy Trace 64.9 61.0 87% NA NA 29.81 1009.5
07:56 AM EDT 12.8 10.00 Partly Cloudy -- 66.9 57.9 73% NA NA 29.81 1009.2

Regional Weather Observation


MARSHALL (KRMY)

Clear
51.1 F

MASON (KTEW)

Clear
51.6 F

JACKSON/REYNOLDS (KJXN)

Clear
50.0 F

LANSING (KLAN)

Clear
52.0 F

BATTLE CREEK (KBTL)

Clear
55.9 F

IONIA (KY70)

Clear
50.4 F

Advertise Here


Advertise Here